GLOBALSTAR M004 [B]

Last updated on Thu May 05 2016 07:39:16 GMT+0000 (Coordinated Universal Time)

1 25163U 98008B 16126.19932369 -.00000112 00000-0 -45574-4 0 9995 2 25163 51.9979 131.6327 0003205 107.5930 330.7016 12.63253808840906
UTC large
Height (km)
Speed (km/s)
/
Latitude / Longitude
Inclination (degrees)
Orbital Period (minutes)
Azimuth
Elevation
Range (km)
Doppler Factor

Next 0 passes for location: London (51.5072 / 0.1276)

Sorry there are no passes over London.